User: anonymous   Login
Location: Crab Orchard
(37.7292°N, 88.8042°W)
Time: 13:28:57
(UTC+00:00)
Language:

SL-4 R/B - Orbit

View from above orbital plane
View from above orbital plane
View from above satellite
View from above satellite

Ground track
Ground track

The orbit data is extracted from the following two-line orbital elements,

1 39679U 14021B   20056.79589005 -.00000106 +00000-0 +13127-4 0  9994
2 39679 051.6163 270.1933 0171614 275.4255 082.7160 15.06304618322367
Epoch (UTC): 25 February 2020 19:06:04
Eccentricity: 0.0171614
inclination: 51.6163°
perigee height: 428 km
apogee height: 666 km
right ascension of ascending node: 270.1933°
argument of perigee: 275.4255°
revolutions per day: 15.06304618
mean anomaly at epoch: 82.7160°
orbit number at epoch: 32236

The dashed part of the orbit path shows where the satellite is in the earth's shadow,  

DLR